Date String (YYYY-MM-DD hh:mm:ss) UTC,Instrument flags,Ambient pressure (hPa),Sample flow (lpm),Bypass flow (lpm),Sample temperature (°C),Ambient temperature (°C),ASC tube jacket temperature (°C),LED temperature (°C),Box temperature (°C),Sample RH (%),Span deviation,Mass concentration (μg/m³),Mass concentration (μg/m³),Mass concentration (μg/m³)
DateTimeUTC,F1_M11,P_M11,Q1_M11,Q2_M11,T1_M11,T2_M11,T3_M11,T4_M11,T5_M11,U1_M11,ZSPAN_M11,X0_M11,X2_M11,X1_M11
2021-09-27 07:00:00,,0826.2,4.99,0.00,29.6,28.2,00.0,38.8,31.3,10.6,0003.8,0014.90,0006.22,0005.28
2021-09-27 07:01:00,,0826.2,5.00,0.00,29.7,28.3,00.0,38.8,31.4,10.6,0003.6,0015.17,0006.25,0005.28
2021-09-27 07:02:00,,0826.2,5.00,0.00,29.7,28.4,00.0,38.8,31.4,10.6,0003.8,0014.71,0006.28,0005.29
2021-09-27 07:03:00,,0826.2,5.01,0.00,29.7,28.5,00.0,38.8,31.4,10.6,0003.9,0014.49,0006.23,0005.27
2021-09-27 07:04:00,,0826.2,4.99,0.00,29.7,28.6,00.0,38.8,31.5,10.6,0003.7,0013.52,0006.19,0005.27
2021-09-27 07:05:00,,0826.2,5.01,0.00,29.8,28.7,00.0,38.8,31.5,10.6,0003.3,0013.34,0006.17,0005.27
2021-09-27 07:06:00,,0826.2,5.00,0.00,29.8,28.7,00.0,38.8,31.5,10.5,0003.1,0013.20,0006.13,0005.27
2021-09-27 07:07:00,,0826.2,5.00,0.00,29.8,28.7,00.0,38.8,31.6,10.5,0002.7,0013.05,0006.09,0005.26
2021-09-27 07:08:00,,0826.3,5.00,0.00,29.8,28.8,00.0,38.8,31.6,10.5,0002.7,0012.81,0006.05,0005.26
2021-09-27 07:09:00,,0826.3,5.00,0.00,29.9,28.8,00.0,38.8,31.7,10.5,0002.5,0013.06,0006.05,0005.26
2021-09-27 07:10:00,,0826.3,4.99,0.00,29.9,28.8,00.0,38.9,31.6,10.5,0002.3,0013.32,0006.04,0005.25
2021-09-27 07:11:00,,0826.2,5.00,0.00,29.9,28.9,00.0,38.9,31.7,10.5,0002.0,0013.25,0006.06,0005.26
2021-09-27 07:12:00,,0826.3,5.00,0.00,29.9,28.9,00.0,38.9,31.7,10.5,0001.7,0012.67,0006.04,0005.25
2021-09-27 07:13:00,,0826.3,5.01,0.00,29.9,28.9,00.0,38.9,31.7,10.5,0001.2,0012.56,0006.02,0005.24
2021-09-27 07:14:00,,0826.3,4.99,0.00,30.0,29.0,00.0,38.9,31.7,10.4,0001.2,0012.95,0006.08,0005.25
2021-09-27 07:15:00,,0826.3,5.00,0.00,30.0,29.0,00.0,39.0,31.8,10.4,0001.1,0014.14,0006.13,0005.25
2021-09-27 07:16:00,,0826.3,5.01,0.00,30.0,29.0,00.0,39.0,31.8,10.4,0001.0,0014.34,0006.14,0005.25
2021-09-27 07:17:00,,0826.3,5.00,0.00,30.0,29.0,00.0,39.0,31.8,10.4,0001.2,0015.31,0006.16,0005.26
2021-09-27 07:18:00,,0826.3,4.99,0.00,30.0,29.0,00.0,39.0,31.8,10.4,0001.5,0014.96,0006.22,0005.27
2021-09-27 07:19:00,,0826.3,5.00,0.00,30.1,29.0,00.0,39.0,31.8,10.4,0001.4,0016.02,0006.23,0005.28
2021-09-27 07:20:00,,0826.3,5.00,0.00,30.1,28.9,00.0,39.1,31.8,10.3,0001.3,0016.25,0006.24,0005.28
2021-09-27 07:21:00,,0826.3,4.99,0.00,30.0,27.0,00.0,39.0,31.3,10.4,0001.3,0016.15,0006.25,0005.28
2021-09-27 07:22:00,,0826.2,5.00,0.00,29.8,26.1,00.0,39.0,31.1,10.5,0001.6,0015.87,0006.24,0005.29
2021-09-27 07:23:00,,0826.3,5.00,0.00,29.7,26.4,00.0,39.0,31.1,10.5,0001.9,0016.05,0006.24,0005.29
2021-09-27 07:24:00,,0826.2,5.00,0.00,29.7,26.8,00.0,38.9,31.1,10.6,0002.4,0016.25,0006.22,0005.30
2021-09-27 07:25:00,,0826.3,5.00,0.00,29.6,27.2,00.0,38.9,31.1,10.6,0002.6,0016.67,0006.22,0005.32
2021-09-27 07:26:00,,0826.2,5.00,0.00,29.6,27.5,00.0,38.9,31.2,10.6,0002.8,0015.80,0006.25,0005.31
2021-09-27 07:27:00,,0826.2,4.99,0.00,29.6,27.7,00.0,38.8,31.3,10.5,0002.8,0015.19,0006.23,0005.31
2021-09-27 07:28:00,,0826.3,5.00,0.00,29.6,28.0,00.0,38.8,31.3,10.5,0002.7,0014.08,0006.21,0005.29
2021-09-27 07:29:00,,0826.3,5.00,0.00,29.7,28.1,00.0,38.8,31.3,10.5,0002.8,0013.72,0006.12,0005.27
2021-09-27 07:30:00,,0826.3,4.99,0.00,29.7,28.3,00.0,38.8,31.4,10.4,0003.1,0012.61,0006.11,0005.27
2021-09-27 07:31:00,,0826.3,5.02,0.00,29.7,28.4,00.0,38.8,31.4,10.4,0003.4,0012.15,0006.10,0005.26
2021-09-27 07:32:00,,0826.3,4.99,0.00,29.7,28.5,00.0,38.8,31.5,10.4,0003.5,0011.84,0006.07,0005.27
2021-09-27 07:33:00,,0826.3,5.00,0.00,29.7,28.5,00.0,38.8,31.5,10.4,0003.8,0012.21,0006.08,0005.25
2021-09-27 07:34:00,,0826.3,5.00,0.00,29.8,28.6,00.0,38.8,31.5,10.4,0004.0,0012.26,0006.08,0005.24
2021-09-27 07:35:00,,0826.4,4.99,0.00,29.8,28.6,00.0,38.8,31.5,10.4,0003.4,0012.52,0006.13,0005.24
2021-09-27 07:36:00,,0826.3,5.00,0.00,29.8,28.7,00.0,38.8,31.6,10.4,0003.4,0012.40,0006.13,0005.24
2021-09-27 07:37:00,,0826.3,5.01,0.00,29.8,28.7,00.0,38.9,31.6,10.3,0003.6,0012.31,0006.11,0005.24
2021-09-27 07:38:00,,0826.3,5.00,0.00,29.8,28.7,00.0,38.9,31.6,10.3,0003.5,0012.27,0006.10,0005.25
2021-09-27 07:39:00,,0826.2,5.00,0.00,29.9,28.8,00.0,38.9,31.6,10.3,0003.4,0012.39,0006.16,0005.27
2021-09-27 07:40:00,,0826.2,5.01,0.00,29.9,28.8,00.0,38.9,31.7,10.2,0002.9,0012.64,0006.19,0005.28
2021-09-27 07:41:00,,0826.3,4.99,0.00,29.9,28.8,00.0,38.9,31.7,10.2,0003.0,0012.84,0006.19,0005.29
2021-09-27 07:42:00,,0826.2,5.00,0.00,29.9,28.9,00.0,38.9,31.7,10.2,0003.3,0013.78,0006.21,0005.30
2021-09-27 07:43:00,,0826.2,5.01,0.00,30.0,28.9,00.0,38.9,31.7,10.2,0003.3,0013.93,0006.23,0005.30
2021-09-27 07:44:00,,0826.2,5.01,0.00,30.0,29.0,00.0,39.0,31.7,10.3,0003.0,0013.48,0006.22,0005.31
2021-09-27 07:45:00,,0826.2,5.00,0.00,30.0,29.0,00.0,39.0,31.8,10.2,0002.6,0013.13,0006.20,0005.31
2021-09-27 07:46:00,,0826.2,5.00,0.00,30.0,29.0,00.0,39.0,31.8,10.2,0003.0,0012.57,0006.16,0005.30
2021-09-27 07:47:00,,0826.2,5.00,0.00,30.0,29.0,00.0,39.0,31.8,10.2,0002.8,0012.22,0006.13,0005.30
2021-09-27 07:48:00,,0826.3,5.00,0.00,30.0,29.0,00.0,39.0,31.8,10.3,0002.6,0012.22,0006.13,0005.30
2021-09-27 07:49:00,,0826.3,5.00,0.00,30.1,29.1,00.0,39.0,31.8,10.2,0002.7,0012.14,0006.13,0005.29
2021-09-27 07:50:00,,0826.3,5.00,0.00,30.1,29.1,00.0,39.1,31.9,10.1,0003.0,0012.49,0006.09,0005.29
2021-09-27 07:51:00,,0826.2,5.01,0.00,30.1,29.1,00.0,39.1,31.9,10.1,0003.0,0012.69,0006.12,0005.28
2021-09-27 07:52:00,,0826.3,4.99,0.00,30.1,28.9,00.0,39.1,31.8,10.0,0002.8,0012.57,0006.17,0005.28
2021-09-27 07:53:00,,0826.2,5.01,0.00,30.0,27.0,00.0,39.1,31.4,10.0,0002.1,0011.45,0006.13,0005.28
2021-09-27 07:54:00,,0826.2,5.00,0.00,29.9,26.1,00.0,39.1,31.1,10.2,0002.1,0011.20,0006.15,0005.28
2021-09-27 07:55:00,,0826.2,5.00,0.00,29.8,26.3,00.0,39.0,31.1,10.3,0001.9,0011.10,0006.13,0005.27
2021-09-27 07:56:00,,0826.2,5.01,0.00,29.7,26.7,00.0,39.0,31.1,10.3,0002.4,0011.34,0006.20,0005.27
2021-09-27 07:57:00,,0826.2,4.99,0.00,29.6,27.1,00.0,38.9,31.2,10.3,0002.5,0011.81,0006.23,0005.27
2021-09-27 07:58:00,,0826.2,5.01,0.00,29.6,27.5,00.0,38.9,31.2,10.3,0002.6,0011.90,0006.24,0005.24
2021-09-27 07:59:00,,0826.2,4.99,0.00,29.6,27.7,00.0,38.9,31.3,10.3,0002.7,0012.47,0006.27,0005.23
